Wind_Speed
17 16 16 16 16 17 18 18 20 21 20 20 20 20 19 19 20 21 20 21 21 21 21 21 22 22 23 22 23 23 23 23 23 23 23 23 24 24 24 25 25 25 26
17 17 17 16 17 17 18 19 20 19 19 19 19 19 19 20 20 19 20 21 21 22 22 22 22 22 22 23 23 23 24 23 23 23 23 22 22 23 24 25 26 26 27
17 17 17 17 17 18 19 19 19 18 18 19 20 19 18 19 20 19 19 20 21 22 22 22 21 21 22 22 23 23 23 23 23 24 24 23 23 23 24 25 26 26 27
16 16 16 16 17 18 19 20 18 18 19 19 19 18 19 19 19 18 19 20 20 20 20 20 20 21 21 22 23 23 24 24 24 24 23 24 24 25 25 24 25 26 27
16 16 16 16 17 18 19 18 17 18 18 18 18 19 19 20 19 18 19 19 18 19 19 20 20 21 22 22 23 22 22 22 23 23 23 24 25 25 26 25 25 26 27
17 16 16 16 17 17 17 17 17 18 18 18 18 19 19 19 18 18 19 18 19 19 19 19 20 21 22 22 22 22 22 22 23 24 23 23 24 24 26 26 26 26 26
16 15 15 16 16 17 17 17 17 18 19 18 18 18 19 19 19 18 19 19 19 19 19 19 20 21 21 21 22 22 23 22 23 23 23 24 24 24 25 26 25 25 25
15 16 16 16 17 17 17 16 16 18 18 18 18 18 19 20 19 19 19 19 19 19 19 19 20 21 21 22 21 22 22 22 22 23 24 24 25 25 26 26 26 26 25
17 16 16 17 17 17 17 17 17 17 18 19 20 19 19 19 18 19 18 18 18 18 18 19 20 20 21 21 21 22 22 22 22 22 23 24 25 25 26 27 27 26 26
17 17 17 17 17 18 18 18 18 19 20 19 20 19 19 19 19 18 18 18 18 18 19 19 20 20 21 21 21 22 22 22 22 23 23 24 25 26 26 27 26 26 26
17 17 17 17 17 18 18 18 18 19 20 20 19 19 20 20 19 19 19 19 19 19 19 19 19 20 20 20 21 21 22 22 23 23 23 24 25 25 25 25 24 24 25
17 17 17 17 18 18 18 18 18 19 19 20 19 20 20 20 20 20 19 19 19 19 19 19 19 19 19 20 20 21 21 22 22 23 23 23 23 23 24 24 23 23 24
18 17 18 18 18 18 18 18 19 19 19 20 20 20 20 20 20 20 19 19 19 20 20 20 19 19 20 20 20 20 21 22 23 23 23 23 23 23 24 23 23 23 22
18 18 18 18 18 18 19 19 19 20 20 21 20 20 20 20 21 20 19 19 20 20 20 19 19 19 20 20 21 21 22 23 23 23 23 24 24 23 23 22 21 21 21
18 18 18 18 18 19 19 19 19 20 20 21 20 20 20 20 20 20 19 19 20 20 20 19 19 19 20 20 21 22 22 23 23 23 23 23 23 22 22 21 20 20 20
19 19 19 18 18 19 19 18 19 20 20 20 20 20 20 20 20 19 19 19 19 19 19 19 19 20 20 21 22 22 22 22 23 23 23 22 22 21 21 20 20 19 18
19 20 19 19 19 19 19 19 20 20 20 21 20 20 20 19 19 19 18 18 19 19 19 20 20 20 20 21 21 21 21 21 21 21 21 21 21 21 20 19 19 18 18
19 19 20 19 19 20 20 20 21 20 21 21 20 20 19 19 19 19 18 18 18 19 20 20 20 20 20 20 20 19 19 19 20 20 20 20 21 20 19 18 18 18 17
19 20 20 20 20 20 21 21 21 21 21 20 20 20 20 19 18 18 18 18 19 20 20 20 20 20 19 18 18 18 19 19 20 21 20 20 20 20 19 18 18 17 17
20 20 21 21 21 21 21 21 20 20 20 20 19 19 19 18 18 18 18 19 19 20 20 20 20 19 18 18 18 18 19 20 21 21 21 21 21 20 19 18 18 17 17
21 20 20 21 21 21 21 20 20 20 20 20 19 19 19 18 18 18 19 19 19 20 20 19 18 18 18 19 19 19 20 21 21 22 21 21 21 20 20 19 18 18 18
22 21 21 20 21 21 21 20 20 20 20 20 19 19 18 18 18 19 19 20 20 20 20 19 19 18 18 18 19 19 20 21 22 22 22 22 21 21 20 19 18 18 17
21 21 21 21 20 21 21 21 21 20 20 20 19 19 19 19 19 19 20 20 20 19 20 20 19 19 19 19 20 20 21 21 22 22 22 22 21 20 19 18 17 17 17
22 22 22 21 21 21 21 21 21 21 20 19 19 19 18 19 19 19 20 19 19 19 19 19 19 20 20 20 20 20 20 21 20 20 21 21 20 19 18 18 17 17 17
23 22 22 22 22 21 21 21 20 20 20 19 19 18 19 19 20 20 20 19 19 19 19 20 20 20 20 20 20 20 20 20 20 20 20 20 21 20 19 18 17 17 17
23 23 23 23 22 22 22 21 21 20 20 20 20 20 20 20 20 20 20 19 18 18 18 19 20 20 21 20 20 20 20 20 20 20 20 20 20 20 19 18 18 18 18
Wind_Direction
299 297 294 296 296 299 301 303 303 302 302 302 300 296 295 294 293 290 287 286 285 285 286 288 291 293 295 294 293 291 292 292 293 291 288 286 284 280 277 276 275 275 273
300 300 300 299 299 302 305 307 307 306 306 307 304 299 296 295 295 294 292 291 289 288 288 292 295 294 295 294 294 294 296 295 293 291 290 288 286 283 281 277 275 273 273
301 301 300 298 300 303 306 309 311 310 309 308 308 303 302 301 301 299 297 295 292 290 291 295 295 297 295 295 296 295 295 295 293 292 292 290 287 286 283 280 277 274 273
303 305 305 303 303 305 306 308 309 311 310 312 311 308 306 305 303 300 297 298 295 291 291 294 293 295 297 298 299 298 297 295 293 292 293 291 289 287 285 282 280 277 274
307 304 309 308 307 306 307 308 311 314 313 314 313 310 309 306 304 302 300 298 296 294 294 294 293 296 300 300 301 301 301 298 294 292 293 292 291 288 287 285 284 280 277
312 312 311 312 312 310 310 313 314 315 315 314 315 313 310 308 305 302 301 298 297 297 297 296 297 299 300 300 301 301 302 299 295 294 294 294 294 292 290 289 287 285 282
315 316 314 316 315 313 313 314 312 316 314 311 313 313 313 311 309 305 301 300 299 297 297 297 298 300 301 302 303 302 303 301 299 298 296 295 295 294 293 291 289 288 285
318 319 319 318 316 314 311 313 314 316 316 315 315 313 312 311 309 306 305 303 302 301 302 302 303 304 305 304 304 306 307 306 304 301 297 294 293 295 295 295 291 289 285
320 320 320 319 318 316 314 314 316 316 315 316 316 316 314 315 314 311 309 308 307 305 304 304 305 305 306 306 304 307 308 308 307 305 301 298 296 297 295 294 292 288 285
319 319 320 319 319 320 319 318 318 316 316 316 316 317 316 315 314 312 311 311 312 309 307 306 307 306 305 305 306 307 309 310 310 308 305 302 299 298 298 296 293 289 287
314 315 318 319 320 320 321 321 322 321 319 316 316 316 314 313 311 310 309 309 310 309 307 306 306 305 305 305 307 309 310 313 314 312 308 306 303 299 298 296 294 289 286
312 314 315 316 317 319 319 321 323 323 323 321 318 317 314 312 310 309 308 309 310 309 308 306 306 305 306 308 310 311 313 315 315 314 312 310 307 303 301 298 296 292 288
310 313 315 314 315 318 319 319 323 324 325 324 321 319 318 316 314 312 311 311 311 310 308 308 307 307 308 310 312 312 314 315 315 314 313 311 310 306 303 299 296 294 289
308 310 313 314 315 317 317 319 322 324 326 326 324 321 321 320 318 316 314 313 312 312 311 308 309 308 309 311 312 313 313 315 315 315 314 313 314 310 305 302 298 295 292
307 309 311 314 315 316 317 319 321 323 325 325 324 321 321 322 321 319 316 314 312 312 314 313 311 309 311 313 314 314 315 316 316 316 317 315 315 315 312 307 302 299 296
306 309 310 312 313 313 316 320 322 322 323 323 323 321 321 321 321 320 319 316 315 315 315 314 312 311 312 314 315 316 317 318 318 318 318 318 318 316 314 312 307 303 301
305 307 308 309 311 313 315 317 319 320 322 321 321 321 320 320 320 319 319 319 319 319 319 317 315 314 314 315 316 317 319 320 321 320 319 321 322 320 317 315 312 308 305
302 304 305 308 311 313 315 315 315 318 319 319 320 320 320 318 319 318 317 319 321 323 323 321 320 318 316 317 319 321 323 324 326 326 323 324 323 323 321 319 316 312 309
298 302 305 307 309 312 314 315 317 319 320 319 320 321 321 320 322 322 321 321 321 322 323 322 321 320 320 321 322 322 323 325 327 328 326 323 323 322 322 322 321 317 315
296 297 301 304 308 310 312 315 318 320 320 321 322 323 322 322 323 324 323 322 323 324 323 322 322 321 322 321 321 322 323 325 326 326 325 324 323 322 321 321 322 320 320
294 296 298 301 306 309 311 313 317 319 320 321 322 324 324 322 321 321 322 322 323 324 325 324 323 321 321 321 321 321 323 324 326 326 326 326 326 325 324 323 323 323 323
293 294 298 301 304 306 308 310 314 317 319 320 321 321 322 322 320 319 321 321 321 322 324 325 323 322 321 322 322 322 323 323 325 326 327 327 327 327 326 324 323 325 325
291 293 295 297 301 303 304 307 310 313 316 317 318 318 318 319 320 319 319 320 320 320 324 325 325 324 323 321 322 323 323 323 324 325 327 328 327 328 329 326 325 326 325
289 291 293 295 298 300 303 304 306 309 311 312 313 314 315 317 319 319 319 320 320 321 323 324 324 325 324 323 323 323 323 323 324 325 327 329 330 331 331 329 328 327 326
288 288 290 293 296 297 300 303 305 307 307 308 309 311 313 316 318 318 318 318 318 320 322 323 324 325 326 325 324 324 323 323 324 325 326 327 329 330 330 329 328 328 328
286 288 289 290 292 293 296 300 302 303 305 306 306 307 310 312 315 317 318 317 318 320 322 324 326 327 327 326 325 324 324 323 324 325 326 327 327 327 327 327 326 327 328
Height
5835 5834 5833 5831 5829 5827 5825 5823 5821 5818 5815 5812 5810 5808 5806 5804 5803 5802 5802 5802 5802 5801 5801 5800 5799 5798 5797 5795 5794 5792 5791 5789 5788 5786 5786 5785 5784 5783 5783 5783 5782 5782 5782
5832 5831 5830 5828 5826 5824 5822 5819 5817 5814 5811 5809 5806 5804 5803 5801 5800 5798 5798 5797 5797 5796 5795 5794 5793 5792 5791 5789 5788 5786 5785 5783 5781 5780 5779 5779 5779 5777 5776 5776 5775 5775 5775
5830 5828 5827 5825 5823 5821 5818 5816 5814 5811 5808 5806 5803 5801 5799 5797 5796 5795 5794 5793 5792 5791 5790 5789 5788 5787 5785 5784 5782 5780 5779 5777 5776 5774 5773 5772 5771 5771 5770 5768 5768 5767 5767
5827 5825 5824 5822 5820 5818 5816 5813 5810 5808 5805 5803 5800 5798 5796 5794 5792 5791 5790 5788 5787 5786 5785 5784 5783 5781 5780 5778 5777 5775 5773 5771 5770 5768 5766 5765 5764 5763 5763 5762 5761 5760 5759
5825 5822 5821 5819 5817 5815 5812 5810 5808 5805 5803 5800 5798 5795 5793 5790 5789 5787 5786 5784 5783 5782 5780 5779 5778 5776 5775 5773 5772 5770 5767 5765 5764 5762 5760 5759 5757 5756 5755 5755 5754 5752 5752
5823 5821 5819 5817 5814 5812 5810 5808 5805 5803 5800 5798 5795 5792 5789 5787 5785 5784 5782 5781 5779 5777 5776 5774 5773 5772 5770 5768 5767 5765 5762 5760 5758 5756 5753 5752 5751 5750 5748 5747 5746 5745 5744
5822 5820 5817 5815 5813 5810 5808 5805 5802 5799 5797 5794 5792 5789 5787 5784 5782 5780 5778 5776 5775 5773 5771 5770 5768 5767 5765 5764 5762 5760 5757 5755 5753 5750 5747 5746 5745 5743 5741 5740 5739 5738 5737
5820 5818 5815 5813 5810 5808 5805 5803 5800 5797 5794 5791 5789 5787 5784 5781 5779 5776 5774 5772 5770 5768 5767 5766 5764 5762 5761 5759 5757 5755 5752 5749 5747 5744 5742 5740 5738 5736 5734 5732 5731 5730 5730
5818 5815 5813 5810 5808 5805 5803 5800 5797 5795 5792 5790 5787 5784 5781 5778 5775 5773 5771 5769 5766 5764 5763 5762 5760 5758 5756 5754 5752 5750 5747 5744 5741 5739 5736 5734 5732 5729 5727 5725 5724 5723 5722
5816 5813 5811 5808 5806 5803 5800 5797 5795 5792 5789 5786 5784 5781 5778 5775 5773 5770 5768 5765 5763 5761 5759 5758 5756 5754 5752 5750 5747 5745 5742 5739 5736 5734 5731 5728 5725 5723 5720 5718 5716 5714 5714
5813 5811 5808 5806 5803 5801 5798 5795 5792 5789 5786 5783 5780 5777 5775 5772 5770 5767 5765 5762 5760 5758 5756 5754 5752 5750 5747 5745 5743 5740 5737 5734 5731 5728 5725 5722 5718 5716 5713 5711 5709 5707 5706
5811 5808 5806 5803 5801 5798 5795 5792 5789 5786 5783 5780 5777 5774 5771 5769 5766 5763 5761 5759 5756 5754 5752 5750 5748 5745 5743 5740 5738 5735 5732 5729 5726 5723 5719 5716 5713 5709 5707 5704 5702 5701 5699
5808 5805 5803 5800 5798 5795 5792 5789 5787 5784 5780 5777 5774 5771 5768 5765 5762 5759 5757 5755 5752 5750 5748 5746 5743 5741 5738 5736 5733 5730 5727 5724 5721 5717 5714 5711 5707 5704 5701 5698 5696 5694 5693
5805 5802 5800 5797 5795 5792 5789 5786 5783 5780 5777 5774 5771 5768 5764 5761 5759 5756 5753 5751 5749 5746 5744 5741 5739 5737 5734 5731 5728 5725 5722 5719 5716 5712 5709 5705 5702 5698 5695 5692 5690 5688 5687
5801 5799 5797 5794 5792 5789 5786 5783 5780 5777 5774 5771 5767 5764 5761 5758 5755 5753 5750 5747 5745 5742 5740 5737 5735 5732 5729 5727 5723 5720 5717 5714 5710 5707 5703 5700 5696 5693 5689 5687 5684 5683 5681
5798 5796 5793 5791 5788 5786 5783 5780 5777 5774 5771 5768 5764 5761 5758 5755 5752 5749 5747 5744 5741 5739 5736 5733 5730 5728 5725 5722 5718 5715 5712 5709 5705 5701 5698 5694 5691 5688 5685 5682 5679 5678 5676
5794 5792 5790 5787 5785 5783 5780 5777 5774 5771 5768 5764 5761 5758 5755 5751 5749 5746 5743 5740 5738 5735 5732 5729 5726 5723 5720 5717 5714 5711 5708 5704 5701 5697 5694 5690 5687 5683 5680 5678 5675 5673 5671
5790 5787 5785 5784 5781 5779 5776 5773 5770 5767 5764 5760 5757 5753 5750 5747 5744 5742 5739 5737 5734 5731 5728 5725 5722 5719 5716 5713 5710 5707 5704 5701 5698 5694 5690 5687 5683 5680 5676 5674 5671 5669 5667
5786 5784 5782 5780 5778 5775 5773 5770 5766 5763 5759 5756 5753 5749 5746 5743 5741 5738 5735 5733 5731 5728 5725 5722 5719 5715 5712 5709 5707 5704 5701 5698 5694 5690 5687 5683 5680 5676 5673 5670 5667 5665 5662
5782 5780 5778 5776 5774 5771 5769 5766 5763 5759 5756 5752 5749 5746 5743 5740 5738 5735 5733 5730 5727 5724 5721 5718 5715 5712 5709 5706 5703 5700 5697 5694 5691 5687 5683 5679 5676 5672 5669 5666 5663 5661 5658
5777 5776 5774 5772 5770 5767 5765 5762 5759 5756 5753 5749 5746 5743 5741 5738 5735 5733 5730 5727 5724 5721 5718 5715 5712 5709 5706 5703 5700 5697 5693 5690 5687 5683 5679 5675 5671 5668 5665 5662 5659 5656 5653
5773 5771 5769 5767 5765 5763 5760 5758 5755 5752 5749 5746 5744 5741 5738 5735 5732 5730 5727 5724 5721 5718 5715 5711 5708 5705 5703 5700 5696 5693 5690 5686 5683 5679 5676 5672 5668 5664 5661 5658 5655 5652 5650
5767 5766 5764 5763 5761 5759 5756 5754 5751 5749 5746 5743 5741 5738 5735 5732 5729 5727 5724 5721 5718 5715 5711 5708 5705 5702 5699 5696 5693 5689 5686 5683 5679 5676 5672 5669 5665 5661 5658 5655 5652 5649 5646
5762 5761 5759 5757 5756 5754 5752 5749 5747 5745 5743 5740 5738 5735 5732 5729 5726 5724 5720 5717 5715 5711 5708 5705 5702 5699 5695 5692 5689 5686 5682 5679 5676 5672 5669 5665 5662 5658 5655 5652 5648 5646 5643
5756 5755 5754 5752 5751 5749 5747 5745 5743 5741 5739 5736 5734 5732 5729 5726 5723 5720 5717 5714 5711 5708 5705 5702 5699 5695 5692 5689 5685 5682 5679 5675 5672 5669 5666 5662 5659 5655 5652 5649 5646 5643 5640
5750 5749 5748 5746 5745 5744 5742 5740 5738 5736 5734 5732 5730 5728 5725 5723 5720 5717 5714 5711 5708 5705 5702 5699 5695 5692 5689 5685 5682 5678 5675 5672 5669 5666 5662 5659 5656 5652 5649 5646 5643 5640 5637